Weather History for KM63 - April, 2014

Change the Weather History Date:

Wednesday, April 30, 2014

  Actual Average Record
Temperature  
Mean Temperature 56 °F -  
Max Temperature 64 °F - - ()
Min Temperature 48 °F - - ()
Degree Days  
Heating Degree Days 9    
Growing Degree Days 6 (Base 50)    
Moisture  
Dew Point 19 °F    
Average Humidity 25    
Maximum Humidity 34    
Minimum Humidity 15    
Precipitation  
Precipitation 0.00 in - - ()
Sea Level Pressure  
Sea Level Pressure 30.04 in    
Wind  
Wind Speed 23 mph (NNE)    
Max Wind Speed 44 mph    
Max Gust Speed 55 mph    
Visibility 7 miles    
Events      
T = Trace of Precipitation, MM = Missing Value Source: NWS Daily Summary

Daily Weather History Graph

Daily Weather History Graph

Search for Another Location

Airport or City:

Trip Planner

Search our weather history database for the weather conditions in past years. The results will help you decide how hot, cold, wet, or windy it might be!

Date:

Astronomy

Apr. 30, 2014 Rise Set
Actual Time 6:19 AM MDT 7:44 PM MDT
Civil Twilight 5:53 AM MDT 8:10 PM MDT
Nautical Twilight 5:22 AM MDT 8:41 PM MDT
Astronomical Twilight 4:50 AM MDT 9:14 PM MDT
Moon 7:24 AM MDT (4/30) 9:23 PM MDT (4/30)
Length of Visible Light 14h 17m
Length of Day
13h 25m
Waxing Crescent, 3% of the Moon is Illuminated
Apr 30
Waxing Crescent
May 6
First Quarter
May 14
Full
May 21
Last Quarter
May 28
New

Hourly Weather History & Observations

Time (MDT) Temp. Dew Point Humidity Pressure Visibility Wind Dir Wind Speed Gust Speed Precip Events Conditions
12:56 AM 55.6 °F 8.4 °F 15% 29.99 in 12.0 mi North 4.6 mph - N/A   Clear
1:56 AM 53.8 °F 9.1 °F 17% 29.98 in 12.0 mi NNW 6.9 mph - N/A   Clear
2:56 AM 55.0 °F 9.7 °F 16% 29.98 in 12.0 mi NE 9.2 mph 27.6 mph N/A   Clear
3:56 AM 53.2 °F 13.5 °F 21% 29.97 in 12.0 mi NE 21.9 mph 32.2 mph N/A   Clear
4:56 AM 51.1 °F 18.0 °F 27% 29.96 in 4.0 mi NE 38.0 mph 52.9 mph N/A   Partly Cloudy
5:29 AM 50.0 °F 17.6 °F 28% 30.08 in 4.0 mi NE 43.7 mph 51.8 mph N/A   Squalls
5:41 AM 50.0 °F 17.6 °F 28% 30.11 in 4.0 mi NNE 29.9 mph 39.1 mph N/A   Mostly Cloudy
5:47 AM 48.2 °F 17.6 °F 30% 30.09 in 4.0 mi NNE 31.1 mph 49.5 mph N/A   Mostly Cloudy
5:52 AM 48.2 °F 17.6 °F 30% 30.09 in 4.0 mi NNE 32.2 mph 49.5 mph N/A   Mostly Cloudy
5:56 AM 48.7 °F 18.1 °F 30% 29.97 in 4.0 mi NNE 39.1 mph 52.9 mph N/A   Mostly Cloudy
6:01 AM 48.2 °F 19.4 °F 32% 30.08 in 3.0 mi NNE 41.4 mph 54.1 mph N/A   Mostly Cloudy
6:18 AM 48.2 °F 19.4 °F 32% 30.08 in 2.8 mi NNE 41.4 mph 51.8 mph N/A   Haze
6:36 AM 48.2 °F 19.4 °F 32% 30.08 in 3.0 mi NNE 39.1 mph 52.9 mph N/A   Haze
6:53 AM 48.2 °F 21.2 °F 34% 30.09 in 2.8 mi NNE 38.0 mph 50.6 mph N/A   Haze
6:56 AM 48.0 °F 20.3 °F 33% 29.99 in 2.8 mi NNE 40.3 mph 50.6 mph N/A   Haze
7:54 AM 48.2 °F 21.2 °F 34% 30.10 in 3.0 mi NNE 40.3 mph 52.9 mph N/A   Haze
7:56 AM 48.9 °F 20.8 °F 33% 30.03 in 3.0 mi NNE 38.0 mph 52.9 mph N/A   Haze
8:56 AM 50.9 °F 21.2 °F 31% 30.02 in 3.0 mi NNE 40.3 mph 55.2 mph N/A   Mostly Cloudy
9:56 AM 53.8 °F 21.7 °F 29% 30.10 in 5.0 mi NE 21.9 mph 31.1 mph N/A   Overcast
10:56 AM 55.6 °F 21.4 °F 26% 30.08 in 6.0 mi NNE 24.2 mph 35.7 mph N/A   Mostly Cloudy
11:02 AM 57.2 °F 21.2 °F 25% 30.20 in 6.0 mi NNE 19.6 mph 34.5 mph N/A   Mostly Cloudy
11:56 AM 58.5 °F 21.0 °F 24% 30.05 in 8.0 mi NE 21.9 mph 32.2 mph N/A   Mostly Cloudy
12:01 PM 59.0 °F 19.4 °F 22% 30.16 in 8.0 mi ENE 28.8 mph 34.5 mph N/A   Mostly Cloudy
12:56 PM 59.9 °F 20.7 °F 22% 30.00 in 6.0 mi NNE 26.5 mph 39.1 mph N/A   Partly Cloudy
1:56 PM 60.3 °F 21.0 °F 22% 29.99 in 6.0 mi North 25.3 mph 39.1 mph N/A   Partly Cloudy
2:20 PM 62.6 °F 21.2 °F 20% 30.10 in 7.0 mi NE 27.6 mph 35.7 mph N/A   Partly Cloudy
2:44 PM 62.6 °F 19.4 °F 19% 30.11 in 9.0 mi ENE 21.9 mph 33.4 mph N/A   Partly Cloudy
2:56 PM 62.4 °F 17.8 °F 18% 29.97 in 10.0 mi NE 20.7 mph 32.2 mph N/A   Partly Cloudy
3:16 PM 64.4 °F 17.6 °F 16% 30.09 in 11.0 mi ENE 19.6 mph 33.4 mph N/A   Clear
3:56 PM 62.6 °F 19.4 °F 19% 29.95 in 10.0 mi NE 20.7 mph 34.5 mph N/A   Partly Cloudy
4:56 PM 62.1 °F 21.2 °F 21% 29.93 in 11.0 mi NNE 27.6 mph 32.2 mph N/A   Clear
5:56 PM 61.7 °F 20.1 °F 20% 29.95 in 12.0 mi NE 20.7 mph 29.9 mph N/A   Clear
6:56 PM 60.8 °F 20.3 °F 21% 29.96 in 12.0 mi NE 18.4 mph 25.3 mph N/A   Clear
7:56 PM 59.0 °F 20.5 °F 23% 29.99 in 12.0 mi NE 15.0 mph 27.6 mph N/A   Partly Cloudy
8:56 PM 57.4 °F 20.8 °F 24% 30.01 in 12.0 mi NE 13.8 mph - N/A   Mostly Cloudy
9:56 PM 57.0 °F 20.3 °F 24% 30.02 in 12.0 mi NNE 20.7 mph 26.5 mph N/A   Scattered Clouds
10:56 PM 57.0 °F 20.3 °F 24% 30.01 in 12.0 mi NNE 16.1 mph 26.5 mph N/A   Mostly Cloudy
11:56 PM 56.7 °F 19.8 °F 24% 30.02 in 12.0 mi NNE 17.3 mph 28.8 mph N/A   Mostly Cloudy